Regional Weather Roundup
Issued by NWS

Home | Current Version | Previous Version | Text Only | Print | Product List | Glossary On
Versions: 1 2 3 4 5 6 7 8 9 10 11 12 13 14 15 16 17 18 19 20 21 22 23 24 25 26 27 28 29 30 31 32 33 34 35 36 37 38 39 40 41 42 43 44 45 46 47 48 49 50
000
ASUS43 KDMX 282208
RWRIA

WEATHER ROUNDUP FOR IOWA
NATIONAL WEATHER SERVICE DES MOINES IA
500 PM CDT THU APR 28 2016

NOTE: "FAIR" INDICATES FEW OR NO CLOUDS BELOW 12,000 FEET WITH NO
SIGNIFICANT WEATHER AND/OR OBSTRUCTIONS TO VISIBILITY.

* - THESE STATIONS ARE NOT NWS STATIONS...THUS NOT UNDER NWS
QUALITY CONTROL.  THEY ALSO DO NOT REPORT WEATHER SUCH
AS PRECIPITATION OR FOG.

IAZ001>003-012>014-020>022-031>034-043>046-282300-
   NORTHWEST IOWA

CITY           SKY/WX    TMP DP  RH WIND       PRES   REMARKS
CARROLL *      CLOUDY    48  43  81 N14       29.96S
CHEROKEE *     CLOUDY    45  41  87 N6        30.00R
DENISON *      CLOUDY    46  43  87 NW13      29.97R
LE MARS *      CLOUDY    45  39  81 N9        30.02S
ORANGE CITY *  CLOUDY    43  39  87 N8        30.00S
SHELDON *      CLOUDY    43  39  87 N13       29.99R
SIOUX CITY     CLOUDY    46  39  76 NW10      30.01S
SPENCER        CLOUDY    43  37  79 NE10      30.00R
STORM LAKE *   CLOUDY    43  41  93 N10       29.99R
$$

IAZ055>058-069>071-079>083-090>094-282300-
   SOUTHWEST IOWA

CITY           SKY/WX    TMP DP  RH WIND       PRES   REMARKS
ATLANTIC *     CLOUDY    50  43  76 NW13      29.99R HAZE
AUDUBON *      CLOUDY    48  43  81 N12       29.98R
CLARINDA *       N/A    N/A N/A N/A MISG        N/A
COUNCIL BLFS *   N/A     48  43  81 NW10      30.00R
CRESTON *      CLOUDY    50  46  87 NW16      29.98R
HARLAN  *      CLOUDY    48  43  81 NW12      30.02R
LAMONI         CLOUDY    52  45  77 W17       29.96R
RED OAK *      CLOUDY    50  45  81 NW10      30.00R
SHENANDOAH *   CLOUDY    52  46  82 W10       30.00S
$$

IAZ047>049-059>061-072>074-084-282300-
   CENTRAL IOWA

CITY           SKY/WX    TMP DP  RH WIND       PRES   REMARKS
AMES           LGT RAIN  53  46  77 N12       29.92R
ANKENY *       CLOUDY    54  52  94 NW6       29.91S FOG
BOONE *        CLOUDY    48  48 100 NW14      29.93R FOG
CHARITON *     CLOUDY    55  46  71 W12G18    29.94R
DES MOINES     CLOUDY    54  46  74 W17G25    29.92R
GRINNELL*      RAIN      54  48  82 W7        29.91R
KNOXVILLE *    CLOUDY    55  46  71 W15       29.91R
MARSHALLTOWN   CLOUDY    52  49  89 N16       29.91S
NEWTON *       CLOUDY    55  48  76 NW10      29.91R
PELLA *        CLOUDY    55  46  71 NW6       29.93R
$$

IAZ004>006-015-016-023>025-035-036-282300-
   NORTH CENTRAL IOWA

CITY           SKY/WX    TMP DP  RH WIND       PRES   REMARKS
ALGONA *       CLOUDY    45  43  93 NE12      29.98R
CLARION *      CLOUDY    46  45  93 N10       29.96R
ESTHERVILLE    CLOUDY    41  38  89 N10       29.99R
FORT DODGE *   CLOUDY    46  41  81 N7        29.97R
MASON CITY     CLOUDY    44  41  89 NE10      29.98R
FOREST CITY *  DRIZZLE   43  41  93 NE7       29.97R
WEBSTER CITY * CLOUDY    48  46  93 N12       29.93R
IOWA FALLS *   CLOUDY    50  46  87 N10       29.94S
$$

IAZ007>011-017>019-026>030-037>042-050>054-066-282300-
   NORTHEAST IOWA

CITY           SKY/WX    TMP DP  RH WIND       PRES   REMARKS
CEDAR RAPIDS   LGT RAIN  52  51  97 NW3       29.90R
CHARLES CITY * CLOUDY    45  45 100 NE10      29.96R
CLINTON *      LGT RAIN  50  49  96 E5        29.93R FOG
DECORAH *      MIX PCPN  41  41 100 NE6       29.96R
DUBUQUE        LGT RAIN  45  43  93 NE12      29.93R FOG
MONTICELLO *   PTSUNNY   46  46 100 NE7       29.92R FOG
OELWEIN *      PTSUNNY   46  46 100 NE12      29.94R
WATERLOO       CLOUDY    48  45  89 NE13      29.93R FOG
$$

IAZ064-065-067-068-078-282300-
   EAST CENTRAL IOWA

CITY           SKY/WX    TMP DP  RH WIND       PRES   REMARKS
DAVENPORT      CLOUDY    54  49  83 N3        29.91R
IOWA CITY      CLOUDY    55  47  74 W7        29.92R
MT. PLEASANT * CLOUDY    59  48  67 W9        29.92R
MUSCATINE *    CLOUDY    57  48  72 W5        29.91R
QUAD CITIES    CLOUDY    57  49  74 NW6       29.90R
$$

IAZ062-063-075>077-085>089-095>099-282300-
   SOUTHEAST IOWA

CITY           SKY/WX    TMP DP  RH WIND       PRES   REMARKS
BURLINGTON     CLOUDY    58  46  64 W9        29.91R
FAIRFIELD *    CLOUDY    57  46  67 W10G16    29.92R
FORT MADISON * CLOUDY    57  48  72 W10       29.93R
KEOKUK *       CLOUDY    61  46  59 W10G17    29.91R
OSKALOOSA *    DRIZZLE   52  48  87 W8        29.92R
OTTUMWA        CLOUDY    55  48  77 W12       29.92R
WASHINGTON *   CLOUDY    57  50  77 W9        29.92R
$$

ABBREVIATIONS USED IN REMARKS
   TC - TEMPERATURES IN CELSIUS
  WCI - WIND CHILL INDEX
   HX - HEAT INDEX
  VSB - VISIBILITY
$$





USA.gov is the U.S. government's official web portal to all federal, state and local government web resources and services.